sat.trackr.live / text

‹ back to catalog

STARLINK-34503

NORAD 64420 · 2025-129J

PAYLOAD ACTIVE UNKNOWN

§ Identity

Operator
Country
US
Launch date
2025-06-17
Launch site
AFWTR
Launch vehicle
Mass (kg)
RCS (m²)

Purposes: comms

External: N2YO · Heavens-Above · Gunter

§ Orbital elements

Epoch: 2026-05-24T17:25:39.481824Z

Period
96.11 min
Inclination
70.0007°
Eccentricity
0.0003367
Mean motion
14.98334473 rev/d
Perigee alt
569.7 km
Apogee alt
574.4 km
Semi-major
6,950.2 km
B*
1.5215e-4
RAAN
242.8633°
Arg perigee
267.4896°
Mean anomaly
92.5878°
Rev number
5,261

§ Raw data

STARLINK-345031 64420U 25129J   26144.72615141  .00001723  00000+0  15215-3 0  99982 64420  70.0007 242.8633 0003367 267.4896  92.5878 14.98334473 52610

JSON: /api/v1/satellites/64420 · /tle

For live sub-satellite position, see the globe view (requires WebGL).

§ Visibility from observer

Set your observer location to see the next 7 days of passes ≥ 10°. The values pass through the URL so the page stays shareable.

No JS? Fill the form by hand. The geolocation button needs JavaScript.